STARLINK-1807 (46706 NORAD) Tracking and Keplerian Element Data

This shows tracking and keplerian element data for the satellite.

Feedback or suggestion? Click here.




ElementValue
Catalog46706
NameSTARLINK-1807
Epoch Orbit180
Epoch Day20.91667824
Epoch Year2021
RAAN13.3007
Inclination53.0569
Eccentricity0.0001743
Argument of Perigee70.9846
Mean Anonmoly183.9795
Mean Motion15.06376779
Decay Rate0.00030578
L11 46706U 20073AN 21020.91667824 .00030578 00000-0 20641-2 0 9991
L22 46706 53.0569 13.3007 0001743 70.9846 183.9795 15.06376779 1808

Live tracking and technical data element details for STARLINK-1807 (NORAD 46706). STARLINK-1807 can be tracked NOW for your location showing map with azimuth and elevation plus other details from your city location.

Track the satellite on the map from your city or location and see movement details for azimuth, elevation, latitude, longitude, range, height, and movement on the map or in text.







IsCatalogInMostPopularTable: catalog: 46706, numindb: 36
Update: records affected: 1



GetName: 46706 STARLINK-1807

Hit Count: updated at: Fri, 22 Jan 2021 15:24:24 GMT